• MPC Preparation (Info)

  • MPEC 2019-P55 : A/2019 O3

    The following Minor Planet Electronic Circular may be linked-to from your own Web pages, but must not otherwise be redistributed electronically.

    A form allowing access to any MPEC is at the bottom of this page.


    Read MPEC 2019-P54 Read MPEC 2019-P56


    M.P.E.C. 2019-P55                                Issued 2019 August 8, 20:57 UT  
    
         The Minor Planet Electronic Circulars contain information on unusual
             minor planets and routine data on comets.  They are published
        on behalf of Division F of the International Astronomical Union by the
              Minor Planet Center, Smithsonian Astrophysical Observatory,
                              Cambridge, MA 02138, U.S.A.
    
                 Prepared using the Tamkin Foundation Computer Network
    
                                  MPC@CFA.HARVARD.EDU
                URL https://www.minorplanetcenter.net/    ISSN 1523-6714
    
                                    A/2019 O3                                
    
    
    Observations:
        AK19O030  C2019 05 14.48384320 10 16.90 +08 17 28.7          20.16r EP055I41
        AK19O030  C2019 06 05.40282420 04 32.05 +10 02 20.2          19.48r EP055I41
        AK19O030  C2019 06 11.42093120 02 23.96 +10 28 04.7          20.20gUEP055I41
        AK19O030  C2019 06 11.47097020 02 22.83 +10 28 17.3          19.66rUEP055I41
        AK19O030  C2019 06 14.44291720 01 14.87 +10 40 22.2          20.26g EP055I41
        AK19O030  C2019 06 14.44322020 01 14.86 +10 40 22.5          20.12gUEP055I41
        AK19O030  C2019 06 14.47357620 01 14.11 +10 40 29.5          19.61r EP055I41
        AK19O030  C2019 06 14.47361020 01 14.12 +10 40 30.0          19.54rUEP055I41
        AK19O030  C2019 07 10.30180619 49 42.44 +12 05 13.6          19.27r EP055I41
        AK19O030  C2019 07 10.33510419 49 41.43 +12 05 18.9          19.45g EP055I41
        AK19O030  C2019 07 24.31650519 42 46.97 +12 33 53.2          19.74g EP055I41
        AK19O030* C2019 07 26.22325019 41 50.43 +12 36 48.6          19.30rUEP055I41
        AK19O030  C2019 07 26.23258019 41 50.14 +12 36 49.4          19.25rUEP055I41
        AK19O030  C2019 07 26.25010019 41 49.64 +12 36 51.1          19.15rUEP055I41
        AK19O030  C2019 07 26.25499019 41 49.47 +12 36 51.4          19.32rUEP055I41
        AK19O030  C2019 07 26.26947019 41 49.04 +12 36 52.7          19.31rUEP055I41
        AK19O030 KC2019 07 26.91601 19 41 29.94 +12 37 48.5          21.3 VtEP055A71
        AK19O030 KC2019 07 26.91965 19 41 29.78 +12 37 48.8          21.1 VtEP055A71
        AK19O030 KC2019 07 27.22041 19 41 20.90 +12 38 15.0          19.4 RuEP055850
        AK19O030 KC2019 07 27.23713 19 41 20.39 +12 38 16.7          19.5 RuEP055850
        AK19O030  C2019 07 27.24006019 41 20.34 +12 38 16.1          19.25rUEP055I41
        AK19O030  C2019 07 27.24414019 41 20.21 +12 38 16.7          19.29rUEP055I41
        AK19O030  C2019 07 28.25009019 40 50.51 +12 39 39.4          19.25rUEP055I41
        AK19O030  C2019 07 28.25253019 40 50.43 +12 39 39.6          19.26rUEP055I41
        AK19O030  C2019 07 28.25520919 40 50.36 +12 39 39.8          19.27rUEP055I41
        AK19O030  C2019 07 28.26235019 40 50.15 +12 39 40.5          19.23rUEP055I41
        AK19O030 HC2019 07 30.01662 19 39 58.59 +12 41 55.3                VEP055204
        AK19O030 HC2019 07 30.02321 19 39 58.36 +12 41 55.5          20   GVEP055204
        AK19O030 KC2019 07 30.93115 19 39 31.81 +12 43 01.0          18.7 GVEP055203
        AK19O030 KC2019 07 30.94642 19 39 31.35 +12 43 02.4          18.8 GVEP055203
        AK19O030 KC2019 07 30.96122 19 39 30.92 +12 43 03.5                VEP055203
        AK19O030 IC2019 07 31.88248419 39 04.04 +12 44 07.6          19.5 VdEP055L01
        AK19O030 IC2019 07 31.88326719 39 04.03 +12 44 07.7          19.6 VdEP055L01
        AK19O030 IC2019 07 31.88406119 39 04.03 +12 44 07.7          19.4 VdEP055L01
        AK19O030 IC2019 07 31.88484419 39 03.98 +12 44 08.1          18.9 VdEP055L01
        AK19O030 IC2019 07 31.88563919 39 03.99 +12 44 07.9          19.5 VdEP055L01
        AK19O030 IC2019 07 31.93933519 39 02.33 +12 44 11.2          19.2 VdEP055L01
        AK19O030 KC2019 08 01.29381 19 38 52.11 +12 44 34.9          19.6 RuEP055850
        AK19O030 KC2019 08 01.30877 19 38 51.65 +12 44 35.1          19.6 RuEP055850
        AK19O030 KC2019 08 01.84292 19 38 36.16 +12 45 09.3                VEP055118
        AK19O030 KC2019 08 01.85347 19 38 35.84 +12 45 08.5                VEP055118
        AK19O030 KC2019 08 01.86773 19 38 35.45 +12 45 12.1                qEP055104
        AK19O030 KC2019 08 01.88171 19 38 35.08 +12 45 13.0                qEP055104
        AK19O030 KC2019 08 01.93556 19 38 33.48 +12 45 14.0          20.0 VqEP055I93
        AK19O030 KC2019 08 01.94146 19 38 33.29 +12 45 15.6          19.9 RqEP055160
        AK19O030 KC2019 08 01.94438 19 38 33.20 +12 45 15.8          19.8 RqEP055160
        AK19O030 KC2019 08 01.94650 19 38 33.17 +12 45 15.6          19.4 VqEP055I93
        AK19O030 KC2019 08 01.94729 19 38 33.11 +12 45 16.1          19.8 RqEP055160
        AK19O030 KC2019 08 01.95006 19 38 33.00 +12 45 16.3          19.8 RqEP055160
        AK19O030 9C2019 08 01.96777 19 38 32.58 +12 45 17.4          20.6 GVEP055G40
        AK19O030 9C2019 08 01.97366 19 38 32.39 +12 45 17.1          19.9 GVEP055G40
        AK19O030 9C2019 08 01.97868 19 38 32.20 +12 45 17.5          20.0 GVEP055G40
        AK19O030 1C2019 08 03.51761 19 37 47.82 +12 46 51.3                VEP055Q62
        AK19O030 1C2019 08 03.52216 19 37 47.67 +12 46 51.5          19.4 GVEP055Q62
        AK19O030 KC2019 08 04.88659 19 37 08.57 +12 48 04.5          20.1 VvEP055587
        AK19O030 KC2019 08 04.95550 19 37 06.60 +12 48 08.9          19.8 VvEP055587
        AK19O030 KC2019 08 04.96047 19 37 06.48 +12 48 08.5                oEP055K88
        AK19O030 KC2019 08 04.96754 19 37 06.29 +12 48 09.0                oEP055K88
        AK19O030 KC2019 08 04.97461 19 37 06.08 +12 48 09.5          19.3 RoEP055K88
        AK19O030 KC2019 08 06.95210 19 36 10.02 +12 49 45.1          19.5 RoEP055K88
        AK19O030 KC2019 08 06.95917 19 36 09.82 +12 49 44.8          19.3 RoEP055K88
        AK19O030 KC2019 08 06.96624 19 36 09.62 +12 49 45.3          19.4 RoEP055K88
    
    Observer details:
    104 San Marcello Pistoiese.  Observers P. Bacci, M. Maestripieri.  
        Measurers P. Bacci, L. Tesi, G. Fagioli.  0.60-m reflector + CCD.
    118 Astronomical and Geophysical Observatory, Modra.  Observer S. Gajdos.  
        0.6-m f/5.5 reflector + CCD.
    160 Castelmartini.  Observers M. Jaeger, E. Prosperi, S. Prosperi.  
        Measurer E. Prosperi.  0.35-m f/10 Schmidt-Cassegrain + CCD.
    203 GiaGa Observatory.  Observers S. Foglia, G. Galli.  Measurer G. Galli.  
        0.36-m f/5.76 Schmidt-Cassegrain + CCD.
    204 Schiaparelli Observatory.  Observer L. Buzzi.  
        0.60-m f/4.64 reflector + CCD.
    587 Sormano.  Observers A. Fumagalli, P. Sicoli, A. Testa.  
        Measurer P. Sicoli.  0.5-m f/6.8 reflector + CCD.
    850 Cordell-Lorenz Observatory, Sewanee.  Observer D. T. Durig.  
        0.3-m f/7.6 Schmidt-Cassegrain + 1536x1024 CCD.
    A71 Stixendorf.  Observers M. Jaeger, E. Prosperi, S. Prosperi.  
        Measurer M. Jaeger.  0.3-m f/4 reflector + CCD.
    G40 Slooh.com Canary Islands Observatory.  Observer B. Lutkenhoner.  
        0.43-m f/6.8 Corrected Dall-Kirkham + CCD.
    I41 Palomar Mountain--ZTF.  Observers Q.-Z. Ye, Z. T. F. Collaboration.  
        Measurers Q.-Z. Ye, F. J. Masci.  1.2-m f/2.4 Oschin Schmidt,
        1.2-m f/2.4 Schmidt.
    I93 St Pardon de Conques.  Observer F. Losse.  0.40-m f/3.7 reflector + CCD.
    K88 GINOP-KHK, Piszkesteto.  Observer K. Sarneczky.  
        1.02-m Ritchey-Chretien + CCD.
    L01 Visnjan Observatory, Tican.  Observer K. Korlevic.  
        1.0-m f/2.9 reflector + CCD.
    Q62 iTelescope Observatory, Siding Spring.  Observer H. Sato.  
        0.51-m f/6.8 astrograph + CCD + f/4.5 focal reducer.
    
    Orbital elements:
        A/2019 O3                                                                   
    T 2021 Mar. 5.81545 TT                                  Veres                   
    q   8.8223389            (2000.0)            P               Q                  
                       Peri.   59.92150     +0.25595943     -0.43611998             
                       Node   300.37618     -0.73955975     +0.48637173             
    e   1.0            Incl.   89.80644     +0.62252401     +0.75712740             
    H   10.0                                                                        
    From 62 observations 2019 May 14-Aug. 6.                                        
                                                                                    
    Ephemeris:
    Date    TT    R. A. (2000) Decl.     Delta      r    Elong.  Phase   m1    m2
    2019 07 09    19 50 20.4 +12 01 56   8.6434  9.4864   144.2     3.6        19.9
    ...
    2019 07 24    19 42 56.4 +12 33 24   8.5899  9.4554   146.7     3.4        19.9
    ...
    2019 08 01    19 39 00.7 +12 44 15   8.5867  9.4391   145.3     3.5        19.9
    ...
    2019 08 07    19 36 08.7 +12 49 47   8.5957  9.4270   143.1     3.7        19.9
    2019 08 08    19 35 40.7 +12 50 30   8.5981  9.4250   142.7     3.7        19.9
    2019 08 09    19 35 12.8 +12 51 10   8.6008  9.4230   142.2     3.8        19.9
    ...
    2019 08 15    19 32 30.2 +12 53 57   8.6223  9.4110   139.1     4.0        19.9
    ...
    2019 08 23    19 29 08.3 +12 54 49   8.6644  9.3952   134.0     4.4        19.9
    ...
    2019 09 07    19 23 48.3 +12 49 12   8.7806  9.3662   122.9     5.2        20.0
    
    M. P. C. Staff               (C) Copyright 2019 MPC           M.P.E.C. 2019-P55
    


    Read MPEC 2019-P54 Read MPEC 2019-P56


    MPEC number:

    Enter an MPEC number in one of the following forms:

    • 1997-B01 (the full form)
    • J97B01 (the packed version of the full form)
    • B01 (the abbreviated form)